Location: Owatonna
(44.0840°N, 93.2260°W)
Time: 19:18:24
(UTC-05:00)

Tiangong - Visible Passes

Search period start: 27 June 2022 00:00
Search period end: 07 July 2022 00:00
Orbit: 384 x 388 km, 41.5° (Epoch: 27 June)

Date Brightness Start Highest point End Pass type
(mag) Time Alt. Az. Time Alt. Az. Time Alt. Az.
27 Jun 1.2 22:40:33 10° WSW 22:43:39 52° S 22:45:01 28° ESE visible
28 Jun 1.4 21:41:24 10° WSW 21:44:28 47° S 21:47:33 10° E visible
28 Jun 1.7 23:18:04 10° W 23:20:41 41° SW 23:20:41 41° SW visible
29 Jun 1.3 22:18:50 10° W 22:21:56 52° S 22:24:00 19° ESE visible
29 Jun 3.7 23:55:47 10° W 23:56:13 13° WSW 23:56:13 13° WSW visible
30 Jun 1.8 22:56:23 10° W 22:59:20 35° SSW 22:59:28 35° S visible
01 Jul 1.5 21:57:04 10° W 22:00:07 45° S 22:02:41 13° ESE visible
01 Jul 3.6 23:34:20 10° WSW 23:34:54 13° WSW 23:34:54 13° WSW visible
02 Jul 2.4 22:34:42 10° W 22:37:24 25° SSW 22:38:05 23° S visible
03 Jul 2.0 21:35:15 10° W 21:38:10 34° SSW 21:41:06 10° SE visible
03 Jul 3.8 23:13:29 10° SW 23:13:29 10° SW 23:13:29 10° SW visible
04 Jul 3.1 22:13:09 10° WSW 22:15:20 17° SSW 22:16:40 14° S visible
06 Jul 3.6 21:52:16 10° SW 21:53:05 11° SSW 21:53:54 10° SSW visible
